STARLINK-37022, 68101

Orbit data source: Space-Track

STARLINK-37022, 68101 is a payload satellite owned by SpaceX/Seattle (US) in SSO that was launched on Sun, 08 Mar 2026 UTC via an FALCON 9 launch vehicle from the Air Force Western Test Range (AFWTR). Payload-class satellites include a variety of spacecraft equipped with specific instruments for various scientific and technological missions. These include communications satellites like Starlink; space stations such as the ISS; scientific satellites like the Hubble; Earth observation satellites from companies like Planet Labs, Umbra, and HawkEye 360; GPS; miniature CubeSats for education and research; and military/defense satellites.

Not visible in the next 10 days
Identifier
68101, 2026-044A
Orbit
SSO
Country
Flag of USUS
Related business
Manufacturer
SpaceX/Seattle
Mission
Operational spacecraft
Bus & Motor
STARLINK V2MO, Unknown motor
Mass
575 kg wet, ~530 kg dry
Launch date (UTC)
2026-03-08 (1 week ago)
Launch vehicle
FALCON 9
Launch site
Air Force Western Test Range (AFWTR)
Object type
Payload
Rocket body
Debris
Shape & HBR
Unknown
Radar Cross Section
RCS unknown

Expand to show TLE details & history
Last TLE update: 8 hours ago

TLE from 8 hours ago
0 STARLINK-37022
1 68101U 26044A   26073.50002315 -.01813196  10049-2 -33488-2 0  9991
2 68101  97.2825  33.7282 0001526  96.5155  45.1613 16.01328308  2173
Epoch: 2026-03-14T12:00Z
TLE epoch observation values (Epoch: 2026-03-14T12:00:02.000Z)
Latitude
38.03249°
Longitude
-132.69629°
Altitude
275.468 km
Speed
7.746 km/s
True Right ascension
14h 37m 43s
True Declination
37° 51' 13"
Sunlit
Object was in full shadow at epoch
Visualization orbit readout
Latitude
Unknown
Longitude
Unknown
Altitude
Unknown
Speed
Unknown
Apparent Right ascension
Unknown
Apparent Declination
Unknown
Sunlit
N/A
Visualization observer readout
Local Sidereal Time
00:00:21
Azimuth
Unknown
Elevation
Unknown
Doppler factor
Unknown
Orbital elements
Apogee altitude
268.606 km
Perigee altitude
266.578 km
Semi-major axis
6,645.729 km
Eccentricity
0.00015
Inclination
97.2825°
RAAN
33.7282°
Arg. of periapsis
96.5155°
True anomaly
45.1737°
Mean anomaly
45.1613°
Eccentric anomaly
45.1675°
Mean motion
4.00617 °/min
Orbital period
89.86 mins
BSTAR
-0.0033488
Loading maneuver chart data...
Computing Atmospheric mass density...
Loading historical data...
Loading historical data...
Loading historical data...
Loading historical data...
Loading historical data...
Loading historical data...
Loading historical data...

Documentation

Showing up to 5 results
|